Flag for Norway Weather past 2 weeks in Spydeberg, Norway

Now
48 °F

Passing clouds.


Feels Like: 48 °F
Forecast: 50 / 64 °F
Wind: 2 mph from North

Location: Rygge

Current Time: Aug 1, 2015 at 4:28:38 AM

Latest Report: Aug 1, 2015 at 3:50 AM


Visibility: N/A

Pressure: 29.89 "Hg

Humidity: 100%

Dew point: 48 °F

Location of SpydebergLocation

Historic Weather in Spydeberg — Graph

°F

Spydeberg temperature yesterday

Maximum temperature yesterday: 68 °F (at 4:50 PM)
Minimum temperature yesterday: 54 °F (at 11:50 PM)
Average temperature yesterday: 60 °F

Past Weeks' High & Low Weather Summary

 TemperatureHumidityPressure
High72 °F (Jul 20, 2:20 PM)100% (Jul 25, 3:50 AM)30.07 "Hg (Jul 25, 3:50 AM)
Low48 °F (Jul 17, 4:50 AM)35% (Jul 23, 6:50 PM)29.39 "Hg (Jul 26, 10:20 AM)
Average59 °F77%29.65 "Hg
* Reported Jul 17 2:20 AM — Aug 1 2:50 AM, Spydeberg, Weather by CustomWeather, © 2015

Note: Actual official high and low records may vary slightly from our data, if they occured in-between our weather recording intervals... More about our weather records

Advertising

Spydeberg weather history for previous 24 hours

 ConditionsComfort  
Time TempWeatherWind HumidityBarometerVisibility
2:50 AM
Sat, Aug 1
48 °FPassing clouds.2 mph100%29.89 "HgN/A
2:20 AM48 °FCool.2 mph94%29.89 "HgN/A
1:50 AM50 °FCool.2 mph94%29.89 "HgN/A
1:20 AM50 °FCool.2 mph94%29.89 "HgN/A
12:50 AM52 °FCool.No wind88%29.89 "HgN/A
12:20 AM52 °FCool.3 mph88%29.89 "HgN/A
11:50 PM
Fri, Jul 31
54 °FClear.5 mph82%29.86 "Hg10 mi
11:20 PM57 °FClear.5 mph72%29.86 "Hg10 mi
10:50 PM57 °FClear.5 mph72%29.86 "Hg10 mi
10:20 PM57 °FSunny.7 mph77%29.86 "Hg10 mi
9:50 PM59 °FSunny.7 mph77%29.86 "Hg10 mi
9:20 PM59 °FPassing clouds.7 mph77%29.83 "HgN/A
8:50 PM61 °FSunny.8 mph72%29.83 "Hg10 mi
8:20 PM63 °FSunny.9 mph64%29.83 "Hg10 mi
7:50 PM63 °FPassing clouds.12 mph59%29.83 "HgN/A
7:20 PM64 °FSunny.10 mph52%29.83 "Hg10 mi
6:50 PM66 °FPassing clouds.7 mph49%29.83 "HgN/A
6:20 PM66 °FSunny.7 mph49%29.83 "Hg10 mi
5:50 PM66 °FSunny.5 mph46%29.80 "Hg10 mi
5:20 PM68 °FPassing clouds.5 mph40%29.80 "HgN/A
4:50 PM68 °FSunny.3 mph43%29.80 "Hg10 mi
4:20 PM66 °FSunny.3 mph49%29.80 "Hg10 mi
3:50 PM66 °FPassing clouds.6 mph46%29.80 "HgN/A
3:20 PM64 °FPassing clouds.6 mph49%29.80 "HgN/A
2:50 PM64 °FScattered clouds.8 mph52%29.80 "HgN/A
2:20 PM64 °FPartly sunny.8 mph52%29.80 "HgN/A
1:50 PM64 °FScattered clouds.7 mph60%29.80 "HgN/A
1:20 PM61 °FPartly sunny.9 mph63%29.80 "HgN/A
12:50 PM61 °FScattered clouds.9 mph63%29.77 "HgN/A
12:20 PM63 °FScattered clouds.10 mph59%29.77 "HgN/A
11:50 AM63 °FPartly sunny.12 mph64%29.77 "HgN/A
11:20 AM61 °FPartly sunny.12 mph63%29.77 "HgN/A
10:50 AM59 °FPartly sunny.12 mph68%29.77 "HgN/A
10:20 AM59 °FScattered clouds.14 mph68%29.74 "HgN/A
9:50 AM59 °FScattered clouds.13 mph72%29.74 "HgN/A
9:20 AM59 °FScattered clouds.13 mph72%29.74 "HgN/A
8:50 AM59 °FPassing clouds.10 mph72%29.71 "HgN/A
8:20 AM57 °FScattered clouds.9 mph82%29.71 "HgN/A
7:50 AM57 °FSunny.10 mph82%29.68 "Hg10 mi
7:20 AM57 °FScattered clouds.9 mph82%29.68 "HgN/A
6:50 AM55 °FSunny.10 mph88%29.68 "Hg10 mi
6:20 AM55 °FSunny.10 mph88%29.65 "Hg10 mi
5:50 AM55 °FMostly cloudy.9 mph88%29.65 "HgN/A
5:20 AM55 °FOvercast.9 mph94%29.65 "HgN/A
4:50 AM57 °FMostly cloudy.8 mph88%29.65 "HgN/A
4:20 AM57 °FOvercast.6 mph88%29.65 "HgN/A
Weather by CustomWeather, © 2015

See weather overviewHow to use our weather pages